星链-31107 (STARLINK-31107 )

导读

STARLINK-31107是美国太空探索技术公司星链互联网卫星星座中的一颗卫星,于2023年12月29日发射入轨。星链项目旨在通过近地轨道卫星群提供全球覆盖的高速互联网服务,这颗卫星加入后进一步扩充了星链星座的规模,助力提升星座网络的覆盖能力与服务稳定性。

Basic Information
目录编号:
58684
目录名称:
STARLINK-31107
国际标识:
2023-211T
轨道中心:
EARTH
卫星名称:
星链-31107
卫星全名:
星链-31107 (STARLINK-31107 )
卫星状态:
在轨 (已飞行980 天)
发射日期:
2023-12-29 UTC
国别 :
美国 (US)
星等 :
--
Orbit Information
数据来源 国际轨道数据
星历时间: 2026-09-04T03:49:10+0800
11小时前
查看轨道信息
半长轴: 6861.189km
偏心率: 0.0001552
轨道倾角: 43.004°
近地点辐角 284.010°
升交点赤经 159.654°
平近点角 76.058°
近地点: 481.987km
远地点: 484.117km
周期: 94.267分钟
每日圈数: 15.275792
Detailed Information
固有亮度:
5
最大亮度:
0.3
卫星平台:
Starlink v2.0 mini
覆盖范围:
全球
运营商:
太空探索技术公司
运营商所在国:
美国
制造商(研发单位):
太空探索技术公司
制造商所在国:
美国
使用方式:
暂无
Satellite Introduction
星链(Starlink)计划是由太空探索技术公司(SpaceX)提出的一个巨型低轨卫星互联网星座项目,计划在2019年至2024年间在太空搭建由约1.2万颗卫星组成的“星链”网络,其中1584颗将部署在地球上空550千米处的近地轨道,并从2020年开始工作。该卫星仍在工作。
2D Orbit Map
3D Orbit Map
Orbit Altitude Analysis Chart
Orbit Inclination Analysis Chart
Orbit Comprehensive Analysis Chart
View Comprehensive Chart
Conjunction Data List
Event ID Objects TCA Miss Dist (km) Collision Risk Probability Collision Risk Index (CRI) Action
CDM_260904-021905-868406-648522
2026-09-04T
02:19:11+0000
0.789 km
远距离
3.785407E-5 中风险 0.67
CDM_260904-153905-868406-648522
2026-09-04T
15:39:29+0000
0.863 km
远距离
2.819191E-5 中风险 0.64
CDM_260904-004505-868406-648522
2026-09-04T
00:45:02+0000
1.163 km
极远距离
1.012246E-5 中风险 0.55
CDM_260903-051705-304705-868421
2026-09-03T
05:17:15+0000
1.636 km
极远距离
4.406958E-6 低风险 0.48
CDM_260904-140505-868406-648522
2026-09-04T
14:05:20+0000
2.122 km
极远距离
1.651871E-6 低风险 0.39
CDM_260904-171305-868406-648521
2026-09-04T
17:13:39+0000
2.601 km
极远距离
1.119653E-6 低风险 0.36
CDM_260904-035305-868406-648521
2026-09-04T
03:53:20+0000
2.682 km
极远距离
1.069396E-6 低风险 0.36
CDM_260903-231005-868406-648523
2026-09-03T
23:10:53+0000
2.993 km
极远距离
9.284161E-7 极低风险 0.34